This is the latest recevied weather packets stored in our database for station/object KB0RPJ. If no packets are shown the sender has not sent any weather packets the latest 10 day(s).
| Time | Temp. | Humidity | Pressure | Rain* | Wind** | Luminosity | Snow |
|---|---|---|---|---|---|---|---|
| 1778098205 | 14.44° C | 34% | 1017.6 hPa | 0 mm | - | 918 W/m² | - |
| 1778097905 | 15° C | 36% | 1017.7 hPa | 0 mm | - | 816 W/m² | - |
| 1778097605 | 14.44° C | 39% | 1017.7 hPa | 0 mm | - | 922 W/m² | - |
| 1778097305 | 14.44° C | 34% | 1017.8 hPa | 0 mm | - | 928 W/m² | - |
| 1778097005 | 14.44° C | 35% | 1017.9 hPa | 0 mm | - | 708 W/m² | - |
| 1778096706 | 13.89° C | 35% | 1017.9 hPa | 0 mm | - | 964 W/m² | - |
| 1778096405 | 13.89° C | 36% | 1017.9 hPa | 0 mm | - | 861 W/m² | - |
| 1778096106 | 13.89° C | 38% | 1017.9 hPa | 0 mm | - | 899 W/m² | - |
| 1778095818 | 13.89° C | 39% | 1018 hPa | 0 mm | - | 851 W/m² | - |
| 1778095505 | 13.33° C | 36% | 1018.1 hPa | 0 mm | - | 718 W/m² | - |
| 1778095206 | 13.89° C | 35% | 1018.2 hPa | 0 mm | - | 579 W/m² | - |
| 1778094906 | 13.89° C | 39% | 1018.2 hPa | 0 mm | - | 441 W/m² | - |
| 1778094605 | 13.33° C | 40% | 1018.3 hPa | 0 mm | - | 1020 W/m² | - |
| 1778094309 | 13.33° C | 41% | 1018.3 hPa | 0 mm | - | 994 W/m² | - |
| 1778094005 | 13.33° C | 38% | 1018.3 hPa | 0 mm | - | 852 W/m² | - |
| 1778093706 | 13.33° C | 41% | 1018.3 hPa | 0 mm | - | 809 W/m² | - |
| 1778093409 | 13.33° C | 35% | 1018.3 hPa | 0 mm | - | 660 W/m² | - |
| 1778093104 | 13.33° C | 36% | 1018.3 hPa | 0 mm | - | 548 W/m² | - |
| 1778092805 | 13.33° C | 36% | 1018.3 hPa | 0 mm | - | 913 W/m² | - |
| 1778092504 | 13.33° C | 39% | 1018.3 hPa | 0 mm | - | 914 W/m² | - |
| 1778092205 | 13.33° C | 39% | 1018.3 hPa | 0 mm | - | 924 W/m² | - |
| 1778091905 | 13.33° C | 41% | 1018.4 hPa | 0 mm | - | 644 W/m² | - |
| 1778091605 | 13.33° C | 41% | 1018.4 hPa | 0 mm | - | 801 W/m² | - |
| 1778091305 | 13.33° C | 38% | 1018.5 hPa | 0 mm | - | 1015 W/m² | - |
| 1778091005 | 12.78° C | 38% | 1018.4 hPa | 0 mm | - | 982 W/m² | - |
* Rain latest hour (hover to see other rain measurements)
** Current wind speed in m/s (hover to see current wind gust speed)